Miscellaneous Local Product
Issued by NWS North Platte, NE

Home | Current Version | Previous Version | Text Only | Print | Product List | Glossary Off
Versions: 1 2 3 4 5 6 7 8 9 10 11 12 13 14 15 16 17 18 19 20 21 22 23 24 25 26 27 28 29 30 31 32 33 34 35 36 37 38 39 40 41 42 43 44 45 46 47 48 49 50

000
AXUS43 KLBF 311810
MISLBF


WESTERN AND NORTH CENTRAL NEBRASKA HOURLY WEATHER ROUNDUP
NATIONAL WEATHER SERVICE NORTH PLATTE NE
100 PM CDT FRI JUL 31 2015

***STATIONS NOT REPORTING VARIABLES SUCH AS SKY/WEATHER OR
PRESSURE ARE PROVIDED BY THE NEBRASKA DEPARTMENT OF
ROADS...RAWS...AND APRS NETWORKS...AND ARE NOT UNDER
NATIONAL WEATHER SERVICE QUALITY CONTROL***

...OBSERVATIONS IN AND NEAR THE EASTERN PANHANDLE OF NEBRASKA...

CITY           SKY/WX    TMP DP  RH WIND       PRES   REMARKS
PINE RIDGE     SUNNY     89  53  29 VRB5      30.21F
CHADRON        SUNNY     89  56  32 VRB6      30.20F
ALLIANCE       SUNNY     86  58  38 VRB3      30.25F
SIDNEY         SUNNY     86  59  39 S9        30.29F
BIG SPRINGS      N/A     85  67  55 NE5         N/A
$$

...OBSERVATIONS IN NORTH CENTRAL NEBRASKA...

CITY           SKY/WX    TMP DP  RH WIND       PRES   REMARKS
THEDFORD       SUNNY     90  59  35 W3        30.20F
AINSWORTH      SUNNY     87  65  47 NE5       30.18F
O`NEILL        SUNNY     86  67  52 CALM      30.16F
ORD            SUNNY     90  66  45 VRB6      30.14F HX  92
BROKEN BOW     SUNNY     91  67  44 SW8       30.18F HX  94
SPRINGVIEW       N/A     90  65  43 CALM        N/A  HX  92
CHAMBERS         N/A     91  65  42 CALM        N/A  HX  93
EWING            N/A     87  73  62 CALM        N/A  HX  94
$$

...OBSERVATIONS IN SOUTHWEST NEBRASKA AND FAR NORTHEAST COLORADO...

CITY           SKY/WX    TMP DP  RH WIND       PRES   REMARKS
WRAY           FAIR      89  58  34 SE6       30.25F
IMPERIAL       SUNNY     88  56  33 VRB5      30.23F
OGALLALA       SUNNY     84  62  47 E5        30.24S
NORTH PLATTE   SUNNY     89  62  40 W3        30.19F
MCCOOK         MOSUNNY   90  63  40 W10       30.19F HX  91
LEXINGTON      SUNNY     88  65  47 SW6       30.19F HX  90
PAXTON           N/A     87  64  45 CALM        N/A
BRADY            N/A     87  69  54 CALM        N/A  HX  91
CALLAWAY         N/A     89  76  64 SE3         N/A  HX  99
$$

...NORTH PLATTE AREA...

CITY           SKY/WX    TMP DP  RH WIND       PRES   REMARKS
AIRPORT        SUNNY     89  62  40 W3        30.19F
DOWNTOWN         N/A     90  64  42 CALM        N/A  HX  91
HILLCREST        N/A     88  62  41 MISG        N/A
$$

...SOME WEATHER OBSERVATIONS FROM AROUND THE REGION...

CITY           SKY/WX    TMP DP  RH WIND       PRES   REMARKS
DENVER         MOSUNNY   86  47  25 S7        30.32F
LARAMIE        SUNNY     79  40  24 VRB5      30.42F
CHEYENNE       SUNNY     81  53  37 S16G24    30.37F
SCOTTSBLUFF    SUNNY     84  63  49 SE8       30.25F
RAPID CITY     SUNNY     82  55  39 NE6       30.23F
PIERRE         SUNNY     84  53  34 SE5       30.14F
WINNER         FAIR      89  57  33 VRB3      30.15F
SIOUX FALLS    SUNNY     83  57  41 N7        30.15F
OMAHA          MOSUNNY   90  71  53 NW9       30.10F HX  96
GRAND ISLAND   SUNNY     90  67  46 W9        30.16F HX  93
KANSAS CITY    MOSUNNY   84  68  58 W5        30.14F
WICHITA        PTSUNNY   88  67  49 CALM      30.16F HX  91
HAYS           SUNNY     88  63  42 W7        30.18F
LIBERAL        CLOUDY    72  64  78 W12       30.28S
GOODLAND       MOSUNNY   83  63  50 SW9       30.26F
$$



USA.gov is the U.S. government's official web portal to all federal, state and local government web resources and services.